Location: Unspecified
(0.0000°N, 0.0000°E)
Time: 13:23:27
(UTC+00:00)

Envisat - Pass Details

Date: 25 November 2021
Orbit: 764 x 766 km, 98.2° (Epoch: 07 December)

Event Time Altitude Azimuth Distance (km) Brightness Sun altitude
Rises 04:39:04 0° 10° (N) 3,212 6.1 -15.8°
Reaches altitude 10° 04:41:22 10° 10° (N) 2,289 5.3 -15.3°
Maximum altitude 04:46:25 83° 283° (WNW) 773 2.9 -14.1°
Drops below altitude 10° 04:51:29 10° 194° (SSW) 2,300 5.6 -13.0°
Sets 04:53:48 0° 193° (SSW) 3,228 6.3 -12.4°
